Find Kosmos-2009

NORAD ID: 19903 Int'l Des: 1989-025 Owner: UNKS Country: SU operational
LEOCIRCULAR

Live-Position

3D-Globus wird geladen...

Über Kosmos-2009

Beschreibung wird geladen...

Nächste Überflüge

Passes for default location (London). Set your location on the main map for personalized predictions.

Höhenverlauf

Loading altitude history...

Zweizeiliger Elementsatz

1 19903U 89025B 26131.81888248 .00000006 00000-0 13514-3 0 9999
2 19903 74.0074 152.6844 0040643 46.2251 126.2597 12.55948770702394
Epoch: 11. Mai 2026 • Age: 8 hours

Aktueller Status

Höhe 1473.9 km
Geschwindigkeit 7.11 km/s
Subsatellitenpunkt -17.21°S, 55.91°E
Startdatum 24. März 1989
Alter 37.1 years
Typ other

Technische Details

Klassifizierung Payload
Masse 60.00 kg
Trockenmasse 60.00 kg
Gesamtmasse 60.00 kg
Länge 0.80 m
Durchmesser 0.80 m
Spannweite 0.80 m
Form Poly
Hersteller NPOPM
Bus-Typ Strela-1 11F625
Phasenstatus In Orbit
Besitzer/Staat UNKS/SU

Most Searched